Location: Ebenezer
(18.2167°N, 63.0667°W)
Time: 06:17:51
(UTC+00:00)

Daily predictions for brighter satellites

Satellite Brightness Start Highest point End
(mag) Time Altitude Azimuth Time Altitude Azimuth Time Altitude Azimuth
CCE 1 Rocket 4.2 22:18:22 10° WSW 22:24:49 64° NNW 22:28:55 10° ENE
Centaur D-1AR AC-36 2.0 22:21:29 10° WNW 22:28:30 75° SSW 22:31:45 10° ESE
Meteor 2-12 Rocket 4.5 22:25:16 10° S 22:31:13 62° E 22:37:09 10° NNE
GPS 2-14 Rocket1 2.9 22:28:10 10° WSW 22:31:57 60° SSE 22:35:49 10° E
Cosmos 1980 4.2 22:27:15 10° NNW 22:32:52 66° WSW 22:38:28 10° S
CENTAUR R/B 3.4 22:30:29 10° SSE 22:34:37 23° ESE 22:39:02 10° ENE
SL-4 R/B 4.4 22:36:28 10° SE 22:37:43 11° ESE 22:38:59 10° ESE
NOSS 3-2 (A) 3.2 22:33:03 10° SSW 22:38:28 71° ESE 22:44:12 10° NNE
H-2A R/B 1.7 22:36:22 10° NW 22:38:54 54° NNE 22:47:21 10° ESE
USA 116 3.7 22:36:33 10° N 22:39:38 62° WNW 22:42:55 10° SSW
Okean-O 3.0 22:35:30 10° S 22:39:54 71° WSW 22:44:18 10° NNW
Haruka 4.4 22:39:46 10° NW 22:42:10 17° N 22:45:14 10° NE
Cosmos 1076 Rocket 4.3 22:38:32 10° SSE 22:42:15 30° E 22:46:01 10° NNE
FengYun 1-2 T 4.2 22:37:03 10° SSE 22:42:39 83° ENE 22:48:18 10° N
Cosmos 2221 3.6 22:46:18 10° NNE 22:49:39 22° E 22:53:02 10° SE
BREEZE-M DEB (TANK) 4.1 22:40:48 10° NW 22:50:57 46° NE 22:54:00 14° ESE
Cosmos 2056 Rocket 3.6 22:47:03 10° S 22:52:05 54° E 22:57:11 10° NNE
CZ-4 R/B 4.4 22:48:16 10° S 22:52:24 87° W 22:56:30 10° NNW
CSL-04 Debris 4.2 22:49:25 10° SSE 22:54:38 53° ENE 22:59:51 10° N
Cosmos 1356 Rocket 3.5 22:51:23 10° N 22:55:24 52° E 22:59:28 10° SSE
USA 234 3.9 22:52:42 10° ESE 22:58:20 32° NE 23:03:58 10° NNW
YAOGAN 1 2.4 22:57:25 10° SSE 23:01:43 76° ENE 23:06:01 10° N
SWIFT 2.3 23:03:26 10° WNW 23:07:36 71° N 23:09:33 30° E
Cosmos 1939 Rocket 2.7 23:03:53 10° SSE 23:07:42 65° ENE 23:11:35 10° N
CZ-2D R/B 3.1 23:06:30 10° SSE 23:10:17 72° ENE 23:14:05 10° N
Cosmos 1437 2.5 23:08:19 10° S 23:11:19 85° W 23:13:25 18° N
Fermi 4.4 23:09:06 10° W 23:13:02 44° NNW 23:14:34 30° NE
CSL-04 Rocket 3.6 23:09:18 10° SSE 23:14:44 88° ENE 23:20:16 10° NNW
Cosmos 2058 2.7 23:15:48 10° S 23:19:54 87° E 23:23:40 12° N
ADEOS Rocket 3.9 23:21:37 10° N 23:28:45 64° WNW 23:36:22 10° SSW
FUSE 4.3 23:26:50 10° WNW 23:31:59 46° N 23:32:59 41° NE
Centaur D-1AR AC-39 3.8 13:43:41 10° SW 23:32:21 83° NNW 23:36:26 34° ENE
Cosmos 2251 Rocket 4.1 23:28:43 10° NNW 23:33:56 59° WSW 23:39:11 10° S
Cosmos 1452 Rocket 3.8 23:29:26 10° S 23:34:14 43° ESE 23:34:14 43° ESE
Aureole 1 Rocket 4.5 23:29:45 10° N 23:38:03 59° ENE 23:45:08 10° SSE
In-Cosmos 22 Rocket 4.4 23:32:59 10° S 23:38:45 75° W 23:44:24 10° N
Genesis I 3.4 23:40:16 10° SSW 23:44:12 66° WNW 23:44:17 66° WNW
BLOCK DM-SL R/B 4.4 23:43:17 10° SW 23:44:23 10° SSW 23:45:19 10° SSW
Intelsat 5-2 Rocket 3.4 23:42:03 10° W 23:45:19 73° NNW 23:46:05 61° NE
CZ-4 R/B 4.5 23:45:30 10° SW 23:47:55 16° W 23:50:23 10° WNW
